Tracking 29799 objects as of 11-Oct-2024
HD Live streaming from Space Station
objects crossing your sky now

THORAD AGENA D DEB

Track THORAD AGENA D DEB now!
10-day predictions


NORAD ID: 14467
Int'l Code: 1970-025NT
Perigee: 1,026.8 km
Apogee: 1,030.2 km
Inclination: 100.1 °
Period: 105.6 minutes
Semi major axis: 7399 km
RCS: 0.007 m2 (small)
Launch date: April 8, 1970
Source: United States (US)
Launch site: AIR FORCE WESTERN TEST RANGE (AFWTR)

Note: This is SATELLITE DEBRIS
Your satellite tracking list
Your tracking list is empty




NASA's NSSDC Master Catalog

Two Line Element Set (TLE):
1 14467U 70025NT  24284.35664870  .00001249  00000-0  16302-2 0  9995
2 14467 100.1076 132.4676 0002334  82.5357  92.0570 13.63950244 77958
Source of the keplerian elements: AFSPC